Terminal Aerodrome Forecast
Issued by NWS

Home | Current Version | Previous Version | Text Only | Print | Product List | Glossary On
Versions: 1 2 3 4 5 6 7 8 9 10 11 12 13 14 15
000
FTUS45 KSLC 242340
TAFPVU
TAF
KPVU 242340Z 2500/2524 29011KT P6SM SKC
     FM250400 VRB04KT P6SM FEW120
     FM252000 29006KT P6SM FEW120
      AMD LTD TO CLD VIS AND WIND=

USA.gov is the U.S. government's official web portal to all federal, state and local government web resources and services.